{"data":{"norad_id":55961,"epoch":"2026-05-25T02:50:21.532992Z","epoch_age_seconds":58819,"freshness":"FRESH","line1":"1 55961U 23037AZ  26145.11830478  .00001465  00000+0  13055-3 0  9993","line2":"2 55961  70.0006  71.6674 0002891 269.9721  90.1107 14.98326663175928","mean_motion":14.98326663,"eccentricity":0.0002891,"inclination_deg":70.0006,"raan_deg":71.6674,"arg_perigee_deg":269.9721,"mean_anomaly_deg":90.1107,"bstar":0.00013055,"rev_number":17592,"period_min":96.10721317051,"perigee_km":570.05690661268,"apogee_km":574.07551410891,"semimajor_km":6950.2032103608,"source":"CELESTRAK","updated_at":"2026-05-25T13:38:17.920474Z"}}